Dewpoint
31 31 33 39 40 39 39 38 38 36 36 36 35 34 34 34 33 33 33 32 32 32 32 31 31 30 30
30 30 30 35 36 36 35 35 35 36 34 35 34 33 32 32 33 32 31 31 31 30 30 30 29 29 29
30 30 30 34 33 33 30 32 32 35 34 33 34 32 31 32 31 31 31 30 30 29 29 29 28 27 28
31 29 29 30 32 30 25 25 30 31 31 32 34 32 30 31 31 30 29 29 29 28 28 27 26 26 27
30 30 29 27 30 28 23 24 25 26 28 30 32 31 28 31 30 30 28 28 28 27 27 25 25 26 27
30 30 30 28 28 27 23 22 19 24 25 25 28 28 26 28 29 31 28 27 28 27 25 25 25 25 26
30 29 30 29 28 26 22 22 20 23 22 22 21 21 23 22 30 29 28 27 27 26 25 24 24 25 24
31 31 31 30 28 25 23 22 22 22 22 18 21 19 21 21 27 28 28 27 26 26 25 22 23 23 22
33 33 32 31 28 26 22 20 17 18 21 20 18 19 19 20 24 25 28 28 27 24 21 21 21 22 20
35 35 34 33 30 26 23 21 18 16 19 21 19 18 15 20 21 23 28 28 25 20 18 19 20 20 19
31 31 32 31 28 26 25 23 19 21 23 24 22 20 26 19 21 21 21 21 19 17 19 18 19 20 19
29 28 27 26 27 27 28 27 27 25 26 26 24 19 20 19 18 20 22 20 17 18 19 18 19 20 19
27 26 26 26 27 26 26 26 26 26 27 27 26 28 26 22 19 21 18 20 19 19 19 17 19 19 18
27 26 27 26 26 26 25 24 23 24 24 27 27 26 25 24 24 20 19 13 19 19 19 19 20 20 19
26 25 25 25 26 26 25 25 21 22 21 22 23 23 24 22 20 19 17 18 20 19 19 19 19 19 19
26 25 25 25 26 26 26 26 22 23 22 22 20 16 16 19 23 18 20 18 18 18 19 18 17 18 19
26 27 27 27 26 26 27 27 25 25 23 23 20 19 11 10 19 20 16 17 17 16 18 18 17 17 19
Wind_Speed
5 14 15 17 12 13 16 14 12 12 11 11 10 9 8 7 6 5 6 7 8 10 12 13 16 18 19
12 14 13 16 13 17 13 12 12 12 12 11 10 8 7 6 5 4 4 5 8 10 10 13 15 17 19
11 8 9 15 13 11 11 13 11 13 11 11 10 9 8 6 4 3 2 4 7 8 10 12 15 18 20
16 17 15 12 10 17 14 8 11 10 9 9 10 9 7 6 5 3 2 3 5 8 9 12 15 17 19
17 17 16 20 23 12 11 9 7 7 8 7 8 8 7 8 6 5 2 2 5 8 9 12 15 18 19
15 22 21 20 15 19 15 15 8 9 10 10 10 10 9 9 9 9 3 1 4 7 9 13 16 17 19
27 22 21 25 21 20 18 15 7 6 8 11 8 9 9 9 11 8 6 1 3 7 10 13 16 18 18
20 21 15 24 24 18 16 10 6 6 6 7 6 6 6 7 9 8 8 4 3 7 10 13 15 17 17
19 21 22 27 23 21 20 20 6 7 6 5 6 5 4 4 5 7 8 6 5 5 7 12 14 14 11
15 18 22 23 26 20 22 23 9 5 10 9 8 6 4 1 4 2 4 6 4 4 8 11 12 9 9
18 17 17 17 16 16 16 19 13 4 10 9 6 6 3 4 2 4 4 1 2 4 8 11 13 11 8
19 18 19 17 14 14 10 8 7 3 15 5 7 9 7 4 4 4 3 2 2 4 6 10 12 12 11
21 16 14 13 16 15 15 17 16 13 8 2 9 10 7 6 5 4 3 1 3 5 8 11 10 11 13
18 14 14 14 13 9 11 12 11 9 10 7 11 7 5 5 4 5 3 1 3 7 8 8 9 8 7
20 19 17 14 11 10 11 11 8 11 7 6 10 11 9 6 5 4 3 1 5 8 7 9 8 9 9
20 20 20 17 15 11 12 9 13 11 8 5 7 5 3 5 5 6 3 1 4 8 9 12 8 8 9
21 20 19 17 18 15 12 12 11 9 8 7 8 4 5 5 1 3 4 0 4 6 5 6 9 15 12
Wind_Direction
118 159 155 159 163 149 140 138 143 157 155 149 146 137 125 108 89 71 52 45 36 26 20 13 11 5 359
144 159 161 163 151 148 147 149 154 169 167 163 160 156 147 132 108 88 58 42 36 25 14 12 7 0 356
144 147 144 161 149 154 160 159 164 172 175 175 174 172 168 155 147 123 60 32 34 22 15 10 4 359 355
142 153 156 164 151 161 159 145 154 169 180 182 183 181 179 179 174 155 67 24 24 19 11 6 0 359 355
152 159 165 172 180 171 164 161 176 177 168 175 178 178 199 196 194 178 136 28 21 11 2 3 1 360 354
165 174 180 179 168 168 163 165 197 208 183 204 194 208 215 203 201 185 170 59 18 357 356 358 359 356 353
170 180 174 182 169 171 177 178 186 182 152 200 196 207 207 193 182 188 183 144 358 348 350 353 354 353 357
174 175 177 173 175 177 170 141 89 127 152 187 189 208 175 185 194 200 206 204 328 345 347 347 348 350 356
172 167 166 169 160 140 158 159 152 192 195 153 170 151 178 199 210 212 218 223 276 328 337 344 341 346 347
139 151 156 163 162 168 161 169 146 166 205 174 159 150 179 190 174 186 210 246 252 345 348 348 342 341 336
131 131 137 150 155 159 167 165 166 176 181 157 156 152 115 150 185 194 191 178 58 9 352 350 345 340 328
142 148 153 152 152 151 142 115 63 135 157 143 131 153 156 149 178 188 189 147 84 358 357 346 337 342 341
161 164 162 142 123 110 97 91 78 66 77 94 139 141 141 153 165 164 167 149 62 11 0 339 326 333 339
157 137 130 142 144 131 129 124 106 84 58 78 101 118 126 113 132 153 128 119 1 3 344 320 315 321 327
145 146 148 145 144 136 136 137 138 150 145 81 79 82 81 127 122 131 133 35 5 352 344 321 298 322 332
147 151 152 151 149 147 149 147 146 152 147 140 136 102 70 57 63 143 116 44 350 344 336 329 306 322 327
150 151 148 145 154 159 150 138 133 140 148 150 166 145 163 182 183 93 149 141 343 335 315 316 297 309 313